• In Romania
  • List of Countries
  • For 7 days
  • Water Temperature
  • Satellite Maps
  • Weather Map
  • Weather Widgets
  • user-avatar
    Login

    Hourly Weather Batina

    Today, 23 June, Friday

    Time Temperature Precipitation Wind Pressure Humidity
    00:00 +21°C° 0 mm 2 mps 674 mmHg 65%
    01:00 +21°C° 0 mm 2 mps 674 mmHg 67%
    02:00 +21°C° 0 mm 1 mps 674 mmHg 69%
    03:00 +21°C° 0 mm 1 mps 674 mmHg 70%
    04:00 +21°C° 0 mm 1 mps 674 mmHg 67%
    05:00 +22°C° 0 mm 1 mps 675 mmHg 63%
    06:00 +21°C° 0 mm 0 mps 675 mmHg 59%
    07:00 +25°C° 0 mm 1 mps 676 mmHg 52%
    08:00 +27°C° 0 mm 1 mps 676 mmHg 46%
    09:00 +28°C° 0 mm 1 mps 677 mmHg 39%
    10:00 +30°C° 0 mm 1 mps 677 mmHg 36%
    11:00 +31°C° 0 mm 1 mps 677 mmHg 32%
    12:00 +32°C° 0 mm 2 mps 677 mmHg 29%
    13:00 +32°C° 0 mm 2 mps 677 mmHg 28%
    14:00 +32°C° 0 mm 2 mps 676 mmHg 28%
    15:00 +32°C° 0 mm 2 mps 676 mmHg 28%
    16:00 +31°C° 0 mm 2 mps 676 mmHg 30%
    17:00 +30°C° 0 mm 2 mps 676 mmHg 32%
    18:00 +30°C° 0 mm 2 mps 676 mmHg 34%
    19:00 +28°C° 0 mm 2 mps 676 mmHg 38%
    20:00 +27°C° 0 mm 2 mps 676 mmHg 43%
    21:00 +26°C° 0 mm 2 mps 676 mmHg 48%
    22:00 +25°C° 0 mm 2 mps 675 mmHg 51%
    23:00 +24°C° 0 mm 1 mps 675 mmHg 54%

    Tomorrow, 24 June, Saturday

    Time Temperature Precipitation Wind Pressure Humidity
    00:00 +23°C° 0 mm 1 mps 675 mmHg 58%
    01:00 +23°C° 0 mm 1 mps 675 mmHg 58%
    02:00 +22°C° 0 mm 1 mps 674 mmHg 59%
    03:00 +22°C° 0 mm 1 mps 674 mmHg 59%
    04:00 +23°C° 0 mm 1 mps 674 mmHg 55%
    05:00 +24°C° 0 mm 1 mps 675 mmHg 51%
    06:00 +24°C° 0 mm 1 mps 675 mmHg 47%
    07:00 +26°C° 0 mm 2 mps 676 mmHg 42%
    08:00 +28°C° 0 mm 2 mps 676 mmHg 37%
    09:00 +29°C° 0 mm 3 mps 677 mmHg 31%
    10:00 +30°C° 0 mm 3 mps 677 mmHg 28%
    11:00 +31°C° 0 mm 3 mps 676 mmHg 26%
    12:00 +33°C° 0 mm 3 mps 676 mmHg 23%
    13:00 +34°C° 0 mm 3 mps 676 mmHg 22%
    14:00 +34°C° 0 mm 3 mps 676 mmHg 22%
    15:00 +34°C° 0 mm 3 mps 675 mmHg 21%
    16:00 +33°C° 0 mm 3 mps 675 mmHg 23%
    17:00 +31°C° 0 mm 3 mps 675 mmHg 25%
    18:00 +30°C° 0 mm 3 mps 674 mmHg 27%
    19:00 +29°C° 0 mm 2 mps 674 mmHg 31%
    20:00 +27°C° 0 mm 1 mps 674 mmHg 36%
    21:00 +25°C° 0 mm 1 mps 674 mmHg 41%
    22:00 +25°C° 0 mm 1 mps 674 mmHg 43%
    23:00 +24°C° 0 mm 1 mps 674 mmHg 44%

    Day after tomorrow, 25 June, Sunday

    Time Temperature Precipitation Wind Pressure Humidity
    00:00 +24°C° 0 mm 1 mps 674 mmHg 46%
    01:00 +23°C° 0 mm 1 mps 673 mmHg 46%
    02:00 +23°C° 0 mm 1 mps 673 mmHg 46%
    03:00 +22°C° 0 mm 1 mps 673 mmHg 47%
    04:00 +24°C° 0 mm 1 mps 673 mmHg 43%
    05:00 +25°C° 0 mm 1 mps 673 mmHg 40%
    06:00 +26°C° 0 mm 1 mps 674 mmHg 37%
    07:00 +27°C° 0 mm 2 mps 674 mmHg 33%
    08:00 +29°C° 0 mm 2 mps 675 mmHg 28%
    09:00 +31°C° 0 mm 3 mps 675 mmHg 24%
    10:00 +33°C° 0 mm 3 mps 675 mmHg 22%
    11:00 +34°C° 0 mm 3 mps 675 mmHg 20%
    12:00 +35°C° 0 mm 3 mps 675 mmHg 19%
    13:00 +35°C° 0 mm 3 mps 674 mmHg 18%
    14:00 +36°C° 0 mm 3 mps 674 mmHg 18%
    15:00 +36°C° 0 mm 3 mps 674 mmHg 17%
    16:00 +35°C° 0 mm 3 mps 673 mmHg 18%
    17:00 +34°C° 0 mm 3 mps 673 mmHg 20%
    18:00 +33°C° 0 mm 3 mps 673 mmHg 21%
    19:00 +31°C° 0 mm 2 mps 673 mmHg 25%
    20:00 +29°C° 0 mm 2 mps 673 mmHg 29%
    21:00 +27°C° 0 mm 1 mps 673 mmHg 32%
    22:00 +26°C° 0 mm 1 mps 672 mmHg 33%
    23:00 +26°C° 0 mm 1 mps 672 mmHg 34%

    26 June, Monday

    Time Temperature Precipitation Wind Pressure Humidity
    00:00 +25°C° 0 mm 1 mps 672 mmHg 35%
    01:00 +25°C° 0 mm 1 mps 672 mmHg 34%
    02:00 +25°C° 0 mm 2 mps 671 mmHg 34%
    03:00 +25°C° 0 mm 2 mps 671 mmHg 34%
    04:00 +26°C° 0 mm 2 mps 671 mmHg 33%
    05:00 +26°C° 0 mm 2 mps 672 mmHg 31%
    06:00 +27°C° 0 mm 3 mps 672 mmHg 30%
    07:00 +29°C° 0 mm 3 mps 673 mmHg 26%
    08:00 +32°C° 0 mm 4 mps 673 mmHg 23%
    09:00 +34°C° 0 mm 5 mps 674 mmHg 19%
    10:00 +35°C° 0 mm 5 mps 674 mmHg 18%
    11:00 +36°C° 0 mm 5 mps 673 mmHg 16%
    12:00 +37°C° 0 mm 5 mps 673 mmHg 15%
    13:00 +37°C° 0 mm 4 mps 673 mmHg 15%
    14:00 +38°C° 0 mm 4 mps 673 mmHg 15%
    15:00 +38°C° 0 mm 4 mps 673 mmHg 14%
    16:00 +37°C° 0 mm 3 mps 672 mmHg 16%
    17:00 +36°C° 0 mm 3 mps 672 mmHg 17%
    18:00 +35°C° 0 mm 3 mps 672 mmHg 18%
    19:00 +32°C° 0 mm 2 mps 672 mmHg 21%
    20:00 +30°C° 0 mm 2 mps 672 mmHg 24%
    21:00 +28°C° 0 mm 1 mps 672 mmHg 27%
    22:00 +28°C° 0 mm 1 mps 671 mmHg 28%
    23:00 +27°C° 0 mm 1 mps 671 mmHg 28%

    27 June, Tuesday

    Time Temperature Precipitation Wind Pressure Humidity
    00:00 +27°C° 0 mm 2 mps 671 mmHg 29%
    01:00 +27°C° 0 mm 2 mps 671 mmHg 29%
    02:00 +27°C° 0 mm 2 mps 671 mmHg 29%
    03:00 +26°C° 0 mm 2 mps 671 mmHg 30%
    04:00 +27°C° 0 mm 2 mps 671 mmHg 29%
    05:00 +28°C° 0 mm 2 mps 672 mmHg 28%
    06:00 +29°C° 0 mm 2 mps 672 mmHg 27%
    07:00 +31°C° 0.1 mm 3 mps 673 mmHg 23%
    08:00 +34°C° 0.1 mm 3 mps 673 mmHg 19%
    09:00 +36°C° 0.1 mm 4 mps 674 mmHg 15%
    10:00 +37°C° 0 mm 4 mps 674 mmHg 14%
    11:00 +38°C° 0 mm 4 mps 674 mmHg 13%
    12:00 +40°C° 0 mm 4 mps 674 mmHg 12%
    13:00 +40°C° 0 mm 4 mps 674 mmHg 12%
    14:00 +40°C° 0 mm 5 mps 673 mmHg 12%
    15:00 +40°C° 0 mm 5 mps 673 mmHg 12%
    16:00 +38°C° 0 mm 4 mps 673 mmHg 14%
    17:00 +37°C° 0 mm 3 mps 673 mmHg 15%
    18:00 +36°C° 0 mm 3 mps 673 mmHg 17%
    19:00 +34°C° 0 mm 3 mps 673 mmHg 20%
    20:00 +32°C° 0 mm 2 mps 673 mmHg 23%
    21:00 +30°C° 0 mm 2 mps 673 mmHg 26%
    22:00 +29°C° 0 mm 2 mps 672 mmHg 27%
    23:00 +29°C° 0 mm 1 mps 672 mmHg 29%

    28 June, Wednesday

    Time Temperature Precipitation Wind Pressure Humidity
    00:00 +29°C° 0 mm 1 mps 671 mmHg 30%
    01:00 +28°C° 0 mm 1 mps 671 mmHg 30%
    02:00 +27°C° 0 mm 2 mps 671 mmHg 30%
    03:00 +27°C° 0 mm 2 mps 670 mmHg 30%
    04:00 +28°C° 0 mm 2 mps 671 mmHg 28%
    05:00 +29°C° 0 mm 2 mps 671 mmHg 26%
    06:00 +30°C° 0 mm 2 mps 672 mmHg 24%
    07:00 +33°C° 0 mm 3 mps 672 mmHg 21%
    08:00 +35°C° 0 mm 4 mps 673 mmHg 18%
    09:00 +37°C° 0 mm 5 mps 673 mmHg 15%
    10:00 +37°C° 0 mm 5 mps 673 mmHg 14%
    11:00 +39°C° 0 mm 6 mps 673 mmHg 13%
    12:00 +40°C° 0 mm 6 mps 673 mmHg 12%
    13:00 +40°C° 0 mm 6 mps 673 mmHg 12%
    14:00 +40°C° 0 mm 6 mps 672 mmHg 12%
    15:00 +40°C° 0 mm 6 mps 672 mmHg 12%
    16:00 +39°C° 0 mm 6 mps 672 mmHg 13%
    17:00 +37°C° 0 mm 5 mps 672 mmHg 14%
    18:00 +36°C° 0 mm 4 mps 671 mmHg 15%
    19:00 +34°C° 0 mm 4 mps 671 mmHg 17%
    20:00 +33°C° 0 mm 4 mps 671 mmHg 19%
    21:00 +30°C° 0 mm 4 mps 671 mmHg 22%
    22:00 +30°C° 0 mm 4 mps 671 mmHg 22%
    23:00 +29°C° 0 mm 4 mps 671 mmHg 23%
    Show more